COSMOS 1825

Satellite information

Favourite Embed

Satellite Type and Status

PAYLOADIN ORBIT

Key statistics

Satellite COSMOS 1825 at a glance.

Uptime

13946

Days in orbit

Revolutions

≈ 16.0

Per day

Orbit

LEO

Low Earth Orbit

Inclination

82.5

Latest

Satellite identification and parameters

Extended collection of information and parameters for COSMOS 1825.

Object identification

Identified? True

Debris? False

Object name: COSMOS 1825

International designator: 1987-024A

Object number (NORAD): 17566

Object ID (CCSDS): 17566

Country: COMMONWEALTH OF INDEPENDENT STATES (CIS)

Current information (Y/N): Y

RCS size: LARGE

Orbital parameters

Period: 89.798 minutes

Inclination: 82.4662 deg

SMA: 6642.597 km

Apoapsis: 268.048 km

Periapsis: 260.876 km

RAAN: 277.5428 deg

Eccentricy: 0.0005398

Argument of periapsis: 257.2762 deg

Mean anomaly: 235.9255 deg

Mean motion: 16.03599496 rev/day

Mean motion (dot): 0.00569618 rev/day2

B* drag term: 0.00091265 1/REarth

Two-line elements (TLE)

Creation date: May 5, 2025, 4:46 p.m.

Reference frame: TEME

Reference center: EARTH

Epoch: May 5, 2025, 4:07 p.m. UTC

TLE line 0: 0 COSMOS 1825

TLE line 1: 1 17566U 87024A 25125.67207532 .00569618 14978-3 91265-3 0 9996

TLE line 2: 2 17566 82.4662 277.5428 0005398 257.2762 235.9255 16.03599496 93247

Live tracking on map

Real-time ground track for satellite COSMOS 1825.

In-orbit conjunctions

There are no conjunctions computed for COSMOS 1825, at the moment. Check back to stay up to date, as we update our databases every day.

Go to all conjunctions

Associated space launch

Tselina-D satellites provided detailed observation of radio sources detected by the smaller Tselina-O satellites as part of the Tselina ELINT system.

COSMOS 1825 was lifted into orbit during the mission ‘Tsiklon-3 | Tselina-D 59’, on board a Tsiklon-3 space rocket.

The launch took place on March 3, 1987, 3:03 p.m. from 32/2.

For more information about the launch, click the button.

Launch to space Tsiklon-3 | Tselina-D 59
Tsiklon-3 | Tselina-D 59

Agency: N/A

Status: Launch Successful

Launch date: March 3, 1987, 3:03 p.m. UTC

Rocket: Tsiklon-3

Launch pad: 32/2

Location: Plesetsk Cosmodrome, Russian Federation

...

Latest news about this satellite

There are no fresh news available about this satellite. Check back as we update our databases every day.


Newsletter sign-up

Weekly statistics, charts and insights to help you stay on top of the space industry.